Flag for U.S.A. Weather past 2 weeks in Urbana, Illinois, U.S.A.

Now
59 °F

Passing clouds.


Feels Like: 57 °F
Forecast: 55 / 76 °F
Wind: 13 mph from Northeast

Location: University Of Illinois-Willard Airport

Current Time: Jul 24, 2014 at 8:13:15 AM

Latest Report: Jul 24, 2014 at 6:53 AM


Visibility: 10 mi

Pressure: 30.12 "Hg

Humidity: 87%

Dew point: 55 °F

Location of UrbanaLocation

Historic Weather in Urbana — Graph

°F

Urbana temperature yesterday

Maximum temperature yesterday: 78 °F (at 12:53 PM)
Minimum temperature yesterday: 59 °F (at 11:53 PM)
Average temperature yesterday: 72 °F

Past Weeks' High & Low Weather Summary

 TemperatureHumidityPressure
High84 °F (Jul 11, 4:53 PM)100% (Jul 14, 1:57 PM)30.22 "Hg (Jul 14, 1:57 PM)
Low52 °F (Jul 16, 3:53 AM)39% (Jul 10, 1:53 PM)29.82 "Hg (Jul 14, 12:53 PM)
Average70 °F76%30.05 "Hg
* Reported Jul 9 7:53 AM — Jul 24 5:53 AM, Urbana, Weather by CustomWeather, © 2014

Note: Actual official high and low records may vary slightly from our data, if they occured in-between our weather recording intervals... More about our weather records

Advertising

Urbana weather history for previous 24 hours

 ConditionsComfort  
Time TempWeatherWind HumidityBarometerVisibility
5:53 AM
Jul 24
57 °FClear.12 mph90%30.11 "Hg10 mi
4:53 AM56 °FClear.12 mph90%30.09 "Hg10 mi
3:53 AM56 °FClear.10 mph87%30.08 "Hg10 mi
2:53 AM57 °FClear.12 mph83%30.08 "Hg10 mi
1:53 AM57 °FClear.10 mph81%30.09 "Hg10 mi
12:53 AM59 °FClear.9 mph75%30.10 "Hg10 mi
11:53 PM
Jul 23
59 °FClear.9 mph81%30.11 "Hg10 mi
10:53 PM61 °FClear.8 mph75%30.11 "Hg10 mi
9:53 PM64 °FClear.14 mph65%30.12 "Hg10 mi
8:53 PM65 °FSunny.10 mph61%30.11 "Hg10 mi
7:53 PM68 °FSunny.13 mph53%30.09 "Hg10 mi
6:53 PM71 °FSunny.20 mph51%30.08 "Hg10 mi
5:53 PM74 °FSunny.24 mph50%30.06 "Hg10 mi
4:53 PM75 °FSunny.18 mph54%30.07 "Hg10 mi
3:53 PM76 °FSunny.20 mph58%30.06 "Hg10 mi
2:53 PM78 °FSunny.14 mph56%30.06 "Hg10 mi
1:53 PM77 °FSunny.16 mph60%30.07 "Hg10 mi
12:53 PM78 °FSunny.16 mph58%30.06 "Hg10 mi
11:53 AM76 °FScattered clouds.15 mph62%30.10 "Hg10 mi
10:53 AM73 °FPartly sunny.14 mph69%30.09 "Hg10 mi
9:53 AM73 °FScattered clouds.14 mph69%30.06 "Hg10 mi
8:53 AM71 °FScattered clouds.17 mph73%30.05 "Hg10 mi
Weather by CustomWeather, © 2014

See weather overviewHow to use our weather pages